User: anonymous   Login
Location: Unspecified
(0.0000°N, 0.0000°E)
Time: 06:08:44
(UTC+00:00)
Language:

HORYU 4 - Orbit

View from above orbital plane
View from above orbital plane
View from above satellite
View from above satellite

Ground track
Ground track

The orbit data is extracted from the following two-line orbital elements,

1 41340U 16012D   17296.56177314 +.00000999 +00000-0 +70070-4 0  9996
2 41340 031.0066 012.4271 0014201 267.3670 092.5340 15.00761658092313
Epoch (UTC): 23 October 2017 13:28:57
Eccentricity: 0.0014201
inclination: 31.0066°
perigee height: 554 km
apogee height: 574 km
right ascension of ascending node: 12.4271°
argument of perigee: 267.3670°
revolutions per day: 15.00761658
mean anomaly at epoch: 92.5340°
orbit number at epoch: 9231

The dashed part of the orbit path shows where the satellite is in the earth's shadow,  

DLR